DELTA 1 DEB, 40764

Orbit data source: Space-Track

DELTA 1 DEB, 40764 is space debris in SSO originally from a launch on Thu, 29 Jul 1976 UTC launched from the Air Force Western Test Range (AFWTR). Debris objects in space refer to the collection of defunct objects orbiting the Earth. Examples of debris include non-operational satellites, rocket bodies, and fragments generated from explosions, collisions, or faulty payload assembly.

Loading next visibility...
Identifier
40764, 1976-077GH
Orbit
SSO
Country
Flag of USUS
Related business
Manufacturer
Unknown
Mission
Spacecraft
Bus & Motor
Unknown
Mass
Unknown
Launch date (UTC)
1976-07-29 (49 years ago)
Launch vehicle
Unknown
Launch site
Air Force Western Test Range (AFWTR)
Object type
Payload
Rocket body
Debris
Shape & HBR
Unknown shape, 0.1 m
Radar Cross Section
Small (<0.1 m²)

Expand to show TLE details & history
Last TLE update: 13 hours ago

TLE from 13 hours ago
0 DELTA 1 DEB
1 40764U 76077GH  25292.14132254  .00000018  00000-0  47123-3 0  9999
2 40764 102.1738 269.0700 0000987 110.5510 249.5659 12.40699661871938
Epoch: 2025-10-19T03:23Z
TLE epoch observation values (Epoch: 2025-10-19T03:23:30.267Z)
Latitude
-0.00004°
Longitude
-169.66835°
Altitude
1,506.453 km
Speed
7.111 km/s
True Right ascension
17h 56m 16s
True Declination
0° 00' 00"
Sunlit
Object was in daylight at epoch
Visualization orbit readout
Latitude
Unknown
Longitude
Unknown
Altitude
Unknown
Speed
Unknown
Apparent Right ascension
Unknown
Apparent Declination
Unknown
Sunlit
N/A
Visualization observer readout
Local Sidereal Time
11:09:05
Azimuth
Unknown
Elevation
Unknown
Doppler factor
Unknown
Orbital elements
Apogee altitude
1,502.001 km
Perigee altitude
1,500.445 km
Semi-major axis
7,879.36 km
Eccentricity
0.0001
Inclination
102.1738°
RAAN
269.07°
Arg. of periapsis
110.551°
True anomaly
249.5553°
Mean anomaly
249.5659°
Eccentric anomaly
249.5606°
Mean motion
3.10318 °/min
Orbital period
116.01 mins
BSTAR
0.00047123
Loading maneuver chart data...
Computing Atmospheric mass density...
Loading historical data...
Loading historical data...
Loading historical data...
Loading historical data...
Loading historical data...
Loading historical data...
Loading historical data...

Documentation

Showing up to 5 results
|